sat.trackr.live / text

‹ back to catalog

CAS-2T & KS-1Q

NORAD 41847 · 2016-066G

PAYLOAD ACTIVE UNKNOWN

§ Identity

Operator
Country
PRC
Launch date
2016-11-09
Launch site
JSC
Launch vehicle
Mass (kg)
RCS (m²)
0.12

Purposes: comms

External: N2YO · Heavens-Above · Gunter

§ Orbital elements

Epoch: 2026-09-19T23:31:31.744992Z

Period
99.66 min
Inclination
98.3748°
Eccentricity
0.0340814
Mean motion
14.44849840 rev/d
Perigee alt
499.8 km
Apogee alt
985.2 km
Semi-major
7,120.7 km
B*
1.2613e-4
RAAN
337.6227°
Arg perigee
201.6995°
Mean anomaly
156.9462°
Rev number
51,848

§ Raw data

CAS-2T & KS-1Q1 41847U 16066G   26262.98022853  .00000835  00000+0  12613-3 0  99992 41847  98.3748 337.6227 0340814 201.6995 156.9462 14.44849840518482

JSON: /api/v1/satellites/41847 · /tle

For live sub-satellite position, see the globe view (requires WebGL).

§ Visibility from observer

Set your observer location to see the next 7 days of passes ≥ 10°. The values pass through the URL so the page stays shareable.

No JS? Fill the form by hand. The geolocation button needs JavaScript.

§ Radio — SatNOGS DB

ModeDescriptionDownlinkUplink
CW CW Telemetry 435.710 MHz
FMN FM Transponder (inactive) 435.615 MHz 145.925 MHz

2 transmitters · refreshed weekly from db.satnogs.org